| time (UTC) | temp C | wind direction | speed KPH | gust KPH | rain 1hr cm | rain 24hr cm | rain mn cm | humidity % | barometer mb |
| 20260505184358 | 26 | 147 | 1.6 | 19.3 | 0.00 | 0.00 | 0.00 | 63 | 1020.6 |
| 20260505183327 | 26 | 212 | 3.2 | 16.1 | 0.00 | 0.00 | 0.00 | 63 | 1020.4 |
| 20260505182341 | 26 | 177 | 3.2 | 19.3 | 0.00 | 0.00 | 0.00 | 64 | 1020.3 |
| 20260505181328 | 26 | 122 | 1.6 | 16.1 | 0.00 | 0.00 | 0.00 | 64 | 1020.2 |
| 20260505180341 | 26 | 216 | 3.2 | 12.9 | 0.00 | 0.00 | 0.00 | 63 | 1020.2 |
| 20260505175333 | 26 | 120 | 4.8 | 16.1 | 0.00 | 0.00 | 0.00 | 63 | 1020.2 |
| 20260505174322 | 26 | 216 | 4.8 | 17.7 | 0.00 | 0.00 | 0.00 | 64 | 1020.2 |
| 20260505173338 | 26 | 158 | 4.8 | 19.3 | 0.00 | 0.00 | 0.00 | 66 | 1020.2 |
| 20260505172324 | 26 | 162 | 1.6 | 14.5 | 0.00 | 0.00 | 0.00 | 66 | 1020.2 |
| 20260505171317 | 26 | 134 | 3.2 | 14.5 | 0.00 | 0.00 | 0.00 | 68 | 1020.5 |
| 20260505170334 | 26 | 145 | 4.8 | 14.5 | 0.00 | 0.00 | 0.00 | 68 | 1020.6 |
| 20260505165320 | 26 | 193 | 6.4 | 19.3 | 0.00 | 0.00 | 0.00 | 68 | 1020.7 |
| 20260505164334 | 26 | 161 | 4.8 | 14.5 | 0.00 | 0.00 | 0.00 | 68 | 1020.8 |
| 20260505163322 | 25 | 165 | 6.4 | 12.9 | 0.00 | 0.00 | 0.00 | 69 | 1021.1 |
| 20260505162336 | 25 | 153 | 1.6 | 9.7 | 0.00 | 0.00 | 0.00 | 72 | 1021.1 |
| 20260505161325 | 25 | 195 | 6.4 | 12.9 | 0.00 | 0.00 | 0.00 | 69 | 1021.1 |
| 20260505160359 | 26 | 175 | 6.4 | 14.5 | 0.00 | 0.00 | 0.00 | 70 | 1021.3 |
| 20260505153333 | 25 | 134 | 4.8 | 11.3 | 0.00 | 0.00 | 0.00 | 72 | 1021.3 |
| 20260505152320 | 24 | 137 | 1.6 | 14.5 | 0.00 | 0.00 | 0.00 | 72 | 1021.4 |
| 20260505151334 | 25 | 170 | 6.4 | 12.9 | 0.00 | 0.00 | 0.00 | 73 | 1021.3 |
| 20260505150321 | 24 | 181 | 4.8 | 14.5 | 0.00 | 0.00 | 0.00 | 73 | 1021.3 |
| 20260505140329 | 22 | 212 | 3.2 | 14.5 | 0.00 | 0.00 | 0.00 | 80 | 1021.1 |
| 20260505124330 | 15 | 167 | 0.0 | 0.0 | 0.00 | 0.00 | 0.00 | 100 | 1020.9 |
| 20260505123319 | 14 | 167 | 0.0 | 0.0 | 0.00 | 0.00 | 0.00 | 100 | 1021.0 |
| 20260505122333 | 13 | 167 | 0.0 | 0.0 | 0.00 | 0.00 | 0.00 | 100 | 1020.9 |
| 20260505121319 | 13 | 167 | 0.0 | 0.0 | 0.00 | 0.00 | 0.00 | 100 | 1020.9 |
| 20260505120334 | 12 | 167 | 0.0 | 1.6 | 0.00 | 0.00 | 0.00 | 100 | 1020.9 |
| 20260505115322 | 11 | 167 | 0.0 | 0.0 | 0.00 | 0.00 | 0.00 | 100 | 1020.7 |
| 20260505114338 | 11 | 167 | 0.0 | 0.0 | 0.00 | 0.00 | 0.00 | 100 | 1020.7 |
| 20260505113328 | 11 | 167 | 0.0 | 0.0 | 0.00 | 0.00 | 0.00 | 100 | 1020.7 |
| 20260505112341 | 11 | 167 | 0.0 | 0.0 | 0.00 | 0.00 | 0.00 | 100 | 1020.5 |
| 20260505111328 | 10 | 167 | 0.0 | 0.0 | 0.00 | 0.00 | 0.00 | 100 | 1020.6 |
| 20260505110318 | 10 | 167 | 0.0 | 0.0 | 0.00 | 0.00 | 0.00 | 100 | 1020.5 |
| 20260505101324 | 11 | 167 | 0.0 | 0.0 | 0.00 | 0.00 | 0.00 | 100 | 1019.7 |
| 20260505100339 | 11 | 167 | 0.0 | 0.0 | 0.00 | 0.00 | 0.00 | 100 | 1019.7 |
| 20260505095333 | 11 | 167 | 0.0 | 0.0 | 0.00 | 0.00 | 0.00 | 100 | 1019.6 |
| 20260505094322 | 11 | 167 | 0.0 | 0.0 | 0.00 | 0.00 | 0.00 | 100 | 1019.6 |
| 20260505093339 | 11 | 167 | 0.0 | 0.0 | 0.00 | 0.00 | 0.00 | 100 | 1019.6 |
| 20260505092324 | 11 | 167 | 0.0 | 0.0 | 0.00 | 0.00 | 0.00 | 100 | 1019.6 |
| 20260505091339 | 11 | 167 | 0.0 | 0.0 | 0.00 | 0.00 | 0.00 | 100 | 1019.4 |
| 20260505090331 | 11 | 167 | 0.0 | 0.0 | 0.00 | 0.00 | 0.00 | 100 | 1019.5 |
| 20260505085345 | 11 | 167 | 0.0 | 0.0 | 0.00 | 0.00 | 0.00 | 100 | 1019.5 |
| 20260505084341 | 11 | 167 | 0.0 | 0.0 | 0.00 | 0.00 | 0.00 | 100 | 1019.4 |
| 20260505083337 | 11 | 167 | 0.0 | 0.0 | 0.00 | 0.00 | 0.00 | 100 | 1019.3 |
| 20260505082351 | 11 | 167 | 0.0 | 0.0 | 0.00 | 0.00 | 0.00 | 100 | 1019.2 |
| 20260505081345 | 11 | 167 | 0.0 | 0.0 | 0.00 | 0.00 | 0.00 | 100 | 1019.1 |
| 20260505080339 | 11 | 167 | 0.0 | 0.0 | 0.00 | 0.00 | 0.00 | 100 | 1019.1 |
| 20260504221319 | 22 | 149 | 8.0 | 24.1 | 0.00 | 0.00 | 0.00 | 64 | 1019.1 |
| 20260504220354 | 22 | 214 | 1.6 | 19.3 | 0.00 | 0.00 | 0.00 | 65 | 1019.1 |
| 20260504215325 | 22 | 140 | 0.0 | 12.9 | 0.00 | 0.00 | 0.00 | 64 | 1019.0 |
| 20260504214334 | 22 | 199 | 3.2 | 17.7 | 0.00 | 0.00 | 0.00 | 63 | 1019.0 |
| 20260504213326 | 23 | 204 | 4.8 | 20.9 | 0.00 | 0.00 | 0.00 | 62 | 1019.0 |
| 20260504212343 | 23 | 181 | 6.4 | 24.1 | 0.00 | 0.00 | 0.00 | 61 | 1019.0 |
| 20260504211330 | 23 | 128 | 0.0 | 17.7 | 0.00 | 0.00 | 0.00 | 62 | 1018.9 |
| 20260504210319 | 23 | 139 | 1.6 | 19.3 | 0.00 | 0.00 | 0.00 | 60 | 1018.9 |
| 20260504205332 | 24 | 181 | 1.6 | 24.1 | 0.00 | 0.00 | 0.00 | 59 | 1018.9 |
| 20260504204318 | 25 | 192 | 0.0 | 20.9 | 0.00 | 0.00 | 0.00 | 60 | 1018.8 |
| 20260504203354 | 25 | 200 | 6.4 | 22.5 | 0.00 | 0.00 | 0.00 | 57 | 1018.8 |
| 20260504202319 | 25 | 150 | 4.8 | 16.1 | 0.00 | 0.00 | 0.00 | 55 | 1018.8 |
| 20260504201332 | 26 | 197 | 1.6 | 14.5 | 0.00 | 0.00 | 0.00 | 55 | 1018.9 |
| 20260504200320 | 26 | 285 | 3.2 | 14.5 | 0.00 | 0.00 | 0.00 | 54 | 1019.1 |
| 20260504195334 | 26 | 203 | 1.6 | 11.3 | 0.00 | 0.00 | 0.00 | 51 | 1019.2 |
| 20260504194320 | 26 | 242 | 1.6 | 11.3 | 0.00 | 0.00 | 0.00 | 49 | 1019.4 |
| 20260504193331 | 26 | 199 | 0.0 | 14.5 | 0.00 | 0.00 | 0.00 | 53 | 1019.5 |
| 20260504192345 | 26 | 122 | 3.2 | 9.7 | 0.00 | 0.00 | 0.00 | 50 | 1019.6 |
| 20260504191337 | 26 | 359 | 0.0 | 8.0 | 0.00 | 0.00 | 0.00 | 51 | 1019.7 |
| 20260504190329 | 26 | 110 | 1.6 | 11.3 | 0.00 | 0.00 | 0.00 | 51 | 1019.8 |
| 20260504185318 | 26 | 147 | 0.0 | 12.9 | 0.00 | 0.00 | 0.00 | 51 | 1020.1 |